Weather History for Montpelier, VT

Change the Weather History Date:

Friday, May 2, 2014

  Actual Average Record
Temperature  
Mean Temperature 47 °F 49 °F  
Max Temperature 57 °F 61 °F 85 °F (2001)
Min Temperature 36 °F 37 °F 25 °F (1956)
Degree Days  
Heating Degree Days 18 16  
Month to date heating degree days 32 32  
Since 1 July heating degree days 8376 7736  
Cooling Degree Days 0 0  
Month to date cooling degree days 0 0  
Year to date cooling degree days 0 1  
Moisture  
Dew Point 36 °F    
Average Humidity 68    
Maximum Humidity 92    
Minimum Humidity 44    
Precipitation  
Precipitation T in 0.10 in 1.17 in (1989)
Month to date precipitation 0.43 0.20  
Year to date precipitation 9.89 9.74  
Sea Level Pressure  
Sea Level Pressure 29.74 in    
Wind  
Wind Speed 6 mph (WSW)    
Max Wind Speed 20 mph    
Max Gust Speed 28 mph    
Visibility 10 miles    
Events Rain    
T = Trace of Precipitation, MM = Missing Value Source: NWS Daily Summary

Daily Weather History Graph

Daily Weather History Graph

Search for Another Location

Airport:

Trip Planner

Search our weather history database for the weather conditions in past years. The results will help you decide how hot, cold, wet, or windy it might be!

Date:

Astronomy

May. 02, 2014 Rise Set
Actual Time 5:40 AM EDT 7:55 PM EDT
Civil Twilight 5:08 AM EDT 8:27 PM EDT
Nautical Twilight 4:28 AM EDT 9:06 PM EDT
Astronomical Twilight 3:44 AM EDT 9:51 PM EDT
Moon 8:12 AM EDT (5/2) 11:17 PM EDT (5/2)
Length of Visible Light 15h 19m
Length of Day
14h 15m
Waxing Crescent, 12% of the Moon is Illuminated
May 2
Waxing Crescent
May 6
First Quarter
May 14
Full
May 21
Last Quarter
May 28
New

Hourly Weather History & Observations

Time (EDT) Temp. Windchill Dew Point Humidity Pressure Visibility Wind Dir Wind Speed Gust Speed Precip Events Conditions
12:51 AM 46.9 °F - 37.9 °F 71% 29.76 in 10.0 mi West 5.8 mph - N/A   Mostly Cloudy
1:51 AM 42.8 °F 40.1 °F 37.4 °F 81% 29.74 in 10.0 mi WSW 4.6 mph - N/A   Partly Cloudy
2:51 AM 37.0 °F 32.4 °F 35.1 °F 93% 29.75 in 10.0 mi SSW 5.8 mph - N/A   Clear
3:51 AM 37.0 °F 33.3 °F 36.0 °F 96% 29.74 in 10.0 mi South 4.6 mph - N/A   Scattered Clouds
4:51 AM 39.0 °F - 36.0 °F 89% 29.73 in 10.0 mi Calm Calm - N/A   Overcast
5:51 AM 37.0 °F - 36.0 °F 96% 29.72 in 8.0 mi Calm Calm - N/A   Overcast
6:51 AM 39.0 °F 36.8 °F 37.9 °F 96% 29.72 in 10.0 mi NW 3.5 mph - N/A   Clear
7:51 AM 48.9 °F - 37.9 °F 66% 29.70 in 10.0 mi WSW 4.6 mph - N/A   Clear
8:51 AM 50.0 °F - 36.0 °F 59% 29.70 in 10.0 mi Calm Calm - N/A   Scattered Clouds
9:51 AM 51.1 °F - 39.0 °F 63% 29.70 in 10.0 mi East 3.5 mph - N/A   Mostly Cloudy
10:51 AM 53.1 °F - 37.0 °F 55% 29.70 in 10.0 mi Variable 4.6 mph - N/A   Overcast
11:51 AM 53.1 °F - 36.0 °F 52% 29.71 in 10.0 mi WSW 13.8 mph 26.5 mph N/A   Overcast
12:51 PM 54.0 °F - 37.0 °F 53% 29.70 in 10.0 mi SW 9.2 mph 20.7 mph 0.00 in   Mostly Cloudy
1:51 PM 53.1 °F - 37.9 °F 57% 29.71 in 9.0 mi WSW 8.1 mph 27.6 mph 0.00 in Rain Light Rain
2:51 PM 51.1 °F - 39.0 °F 63% 29.71 in 10.0 mi NNW 12.7 mph - 0.00 in   Overcast
3:51 PM 53.1 °F - 39.0 °F 59% 29.71 in 10.0 mi NW 10.4 mph - N/A   Mostly Cloudy
4:51 PM 55.9 °F - 35.1 °F 45% 29.71 in 10.0 mi Variable 5.8 mph - N/A   Scattered Clouds
5:51 PM 54.0 °F - 35.1 °F 49% 29.74 in 10.0 mi West 6.9 mph - N/A   Overcast
6:51 PM 53.1 °F - 34.0 °F 48% 29.76 in 10.0 mi WSW 8.1 mph 19.6 mph N/A   Overcast
7:51 PM 52.0 °F - 33.1 °F 49% 29.77 in 10.0 mi West 5.8 mph - N/A   Overcast
8:51 PM 51.1 °F - 30.0 °F 44% 29.79 in 10.0 mi Variable 5.8 mph - N/A   Overcast
9:51 PM 48.9 °F - 30.9 °F 50% 29.83 in 10.0 mi WSW 4.6 mph - N/A   Overcast
10:51 PM 48.0 °F - 30.0 °F 50% 29.83 in 10.0 mi SSW 4.6 mph - N/A   Overcast
11:51 PM 48.0 °F - 30.9 °F 52% 29.83 in 10.0 mi SW 6.9 mph - N/A   Overcast